Location: Unspecified
(0.0000°N, 0.0000°E)
Time: 06:00:58
(UTC+00:00)

DX 1 - Pass Details

Date: 05 July 2020
Orbit: 619 x 630 km, 98.5° (Epoch: 13 August)

Event Time Altitude Azimuth Distance (km) Brightness Sun altitude
Rises 05:01:48 0° 155° (SSE) 2,909 ? -14.5°
Reaches altitude 10° 05:04:06 10° 147° (SSE) 1,998 ? -13.9°
Maximum altitude 05:08:11 40° 78° (ENE) 926 ? -13.0°
Drops below altitude 10° 05:12:13 10° 8° (N) 1,983 ? -12.1°
Sets 05:14:29 0° 1° (N) 2,884 ? -11.6°
